Location: Jasenie
(48.8388°N, 19.4597°E)
Time: 07:08:40
(UTC+00:00)

Daily predictions for brighter satellites

Satellite Brightness Start Highest point End
(mag) Time Altitude Azimuth Time Altitude Azimuth Time Altitude Azimuth
USA 267 4.5 19:20:54 10° ENE 19:27:00 44° N 19:33:07 10° WNW
Resurs 01 Rocket 2.0 19:24:31 10° S 19:28:53 65° WSW 19:33:16 10° NNW
Ariane Rocket 4.1 19:25:04 10° S 19:29:55 44° W 19:34:49 10° NNW
Aureole 1 Rocket 4.2 19:25:27 10° NNW 19:31:25 85° ENE 19:39:03 10° SSE
Cosmos 2322 4.4 19:27:20 10° SSE 19:32:20 33° ESE 19:37:22 10° NE
Cosmos 2278 Rocket 3.8 19:28:02 10° NNW 19:32:42 25° NE 19:37:21 10° E
COSMOS 2428 3.8 19:29:33 10° SSE 19:34:06 25° ESE 19:38:40 10° NE
Cosmos 1844 Rocket 2.8 19:28:45 10° NNW 19:34:27 83° WSW 19:40:08 10° SSE
Landsat 7 4.1 19:30:26 10° S 19:35:11 70° WSW 19:39:57 10° NNW
SPOT 3 Rocket 3.8 19:30:33 10° S 19:35:43 71° WSW 19:40:56 10° NNW
Cosmos 1340 3.8 19:33:33 10° SSE 19:36:45 27° E 19:39:59 10° NNE
Cosmos 2237 4.3 19:32:40 10° SSW 19:38:23 88° ESE 19:44:07 10° NNE
Cosmos 1867 4.4 19:37:03 10° NNW 19:42:20 44° NE 19:47:34 10° ESE
BREEZE-M DEB (TANK) 2.5 19:38:40 10° WNW 19:42:52 53° SW 19:44:52 11° SE
Cosmos 968 Rocket 4.2 19:43:45 10° NNW 19:48:37 41° ENE 19:53:28 10° SE
Cosmos 2061 Rocket 4.3 19:45:02 10° N 19:51:25 61° ENE 19:57:44 10° SSE
Cosmos 2123 Rocket 4.3 19:46:26 10° SSE 19:52:28 51° E 19:58:34 10° NNE
Cosmos 1110 Rocket 4.0 19:48:41 10° SSW 19:53:52 85° ESE 19:59:08 10° NNE
JB-3 4.4 19:51:55 10° NNE 19:55:53 64° ESE 19:59:54 10° S
Cosmos 1908 3.6 19:52:22 10° NNW 19:56:14 64° W 20:00:02 10° S
Cosmos 1544 Rocket 3.6 19:53:05 10° N 19:57:35 87° ENE 20:02:01 10° S
Cosmos 1626 2.0 19:56:10 10° S 19:59:50 77° E 20:03:33 10° NNE
Cosmos 1455 Rocket 3.8 19:57:35 10° NNW 20:01:57 53° W 20:06:16 10° S
FALCON 9 DEB 3.5 19:59:09 10° WSW 20:02:34 67° NNW 20:05:59 10° ENE
Cosmos 2100 Rocket 4.3 19:56:58 10° NNW 20:03:19 71° W 20:09:34 10° S
ARIANE 5 R/B 2.7 20:01:06 10° SSE 20:05:34 86° WSW 20:10:07 10° NNW
BREEZE-M DEB (TANK) 2.7 20:05:47 10° WSW 20:08:20 62° SSE 20:14:02 10° ENE
ATLAS 3B R/B 2.6 20:02:00 10° SSW 20:08:26 62° ESE 20:15:06 10° NE
Cosmos 2333 4.2 20:05:39 10° SSW 20:11:23 76° ESE 20:17:07 10° NNE
Cosmos 1346 Rocket 4.2 20:11:36 14° SE 20:14:02 24° E 20:17:18 10° NE
ATLAS CENTAUR R/B 1.9 20:10:19 10° NW 20:14:34 56° SW 20:18:22 14° SSE
Cosmos 405 2.9 20:13:32 10° NNW 20:17:01 87° W 20:19:49 15° S
Cosmos 2016 Rocket 4.0 20:14:10 10° N 20:20:18 82° W 20:26:21 10° S
SL-4 R/B 3.0 20:19:09 10° SSW 20:22:29 23° SE 20:25:38 10° E
Cosmos 2219 Rocket 2.2 20:18:31 10° SSW 20:24:09 69° ESE 20:29:49 10° NNE
Meteor 2-5 Rocket 3.8 20:18:53 10° S 20:24:21 64° E 20:29:56 10° NNE
Cosmos 2333 Rocket 2.2 20:19:45 10° SSW 20:25:30 81° ESE 20:31:15 10° NNE
FALCON 9 DEB 2.8 20:24:53 10° SW 20:27:59 65° SSE 20:31:06 10° ENE
ERS-1 Rocket 3.1 20:24:08 12° S 20:28:45 72° WSW 20:33:49 10° NNW
Geosat 4.2 20:24:37 15° SSE 20:28:50 69° WSW 20:33:53 10° NNW
Cosmos 1025 Rocket 3.8 20:25:37 10° SSW 20:29:54 54° WNW 20:34:11 10° N
Lacrosse 5 rocket 1.7 20:28:05 10° WSW 20:31:42 57° NNW 20:35:15 10° NE
CZ-4B DEB 4.2 20:30:35 20° SSE 20:32:38 77° ENE 20:35:49 10° N
Cosmos 1536 Rocket 3.6 20:28:19 10° S 20:32:47 90° W 20:37:15 10° N
Spot 2 Rocket 4.3 20:28:48 10° S 20:33:39 46° W 20:38:33 10° NNW
USA 215 4.2 20:28:50 10° ENE 20:34:00 25° SE 20:38:12 14° S
Cosmos 2228 3.5 20:29:58 10° N 20:34:17 51° ENE 20:37:16 19° SSE
Cosmos 1725 Rocket 4.1 20:28:31 10° NNW 20:34:42 75° W 20:40:27 12° S
SL-24 R/B 4.4 20:32:40 10° N 20:37:30 68° E 20:41:24 16° S
DNEPR-1 R/B 4.4 20:36:38 10° NW 20:40:37 39° WSW 20:43:36 17° S
FALCON 9 DEB 2.9 20:40:33 10° WSW 20:43:38 78° NNW 20:46:45 10° ENE
SL-16 R/B 4.2 20:42:05 10° ESE 20:43:52 12° E 20:45:41 10° ENE
Terra 2.0 20:41:19 16° S 20:45:06 70° WSW 20:49:53 10° NNW
Cosmos 2237 Rocket 3.0 20:41:59 18° SSE 20:45:22 33° ESE 20:50:20 10° NE
SL-14 R/B 4.1 20:42:11 10° SSW 20:46:07 51° WNW 20:50:04 10° N
Cosmos 2360 Rocket 3.7 20:43:34 10° WSW 20:48:50 38° NW 20:54:05 10° NNE
FALCON 9 DEB 2.9 20:48:28 10° WSW 20:51:35 83° NNW 20:54:44 10° ENE
SPOT 5 3.8 20:48:16 12° S 20:52:43 45° W 20:57:22 10° NNW
Cosmos 1455 3.0 20:49:32 10° N 20:53:09 37° ENE 20:55:06 22° SE
Cosmos 1503 Rocket 4.3 20:48:32 10° NNW 20:53:55 64° ENE 20:57:38 20° SE
FALCON 9 DEB 3.1 20:51:06 10° WSW 20:54:12 71° NNW 20:57:19 10° ENE
Meteor 1-24 Rocket 3.6 20:51:24 12° S 20:56:24 88° WNW 21:01:58 10° NNE
H-2A R/B 3.4 20:52:35 10° NNE 20:56:42 88° ESE 20:59:53 16° SSW
Cosmos 1184 Rocket 4.2 20:57:03 21° ESE 20:57:49 23° E 21:00:27 10° NE
GEOS 3 Rocket 4.2 20:57:02 12° ESE 21:01:54 55° NE 21:07:06 10° NW
Cosmos 1300 4.1 21:00:01 10° NNW 21:03:28 33° W 21:06:19 13° SSW
USA 267 3.9 21:03:03 10° E 21:09:26 58° NNE 21:15:49 10° NW
Cosmos 2278 Rocket 2.3 21:11:42 10° NNW 21:17:22 74° WSW 21:20:55 24° SSE
COSMOS 2428 3.2 21:12:15 10° SW 21:17:57 63° WNW 21:23:41 10° NNE
Okean 1-7 Rocket 4.4 21:16:50 24° SE 21:18:46 36° E 21:22:50 10° NNE
Cosmos 389 Rocket 3.2 21:19:25 10° NNW 21:22:43 45° W 21:24:17 25° SSW
GENESIS II 4.1 21:20:01 16° SSW 21:23:05 78° SE 21:27:00 10° NE
NOSS 0 Rocket 3.9 21:18:00 12° SSW 21:23:53 80° ESE 21:30:10 10° NNE
Cosmos 1726 Rocket 3.6 21:20:00 10° NNW 21:24:29 78° W 21:26:53 27° S
Cosmos 2058 Rocket 3.2 21:20:28 10° N 21:24:55 67° ENE 21:27:08 28° SSE
Cosmos 1867 4.3 21:20:48 10° NW 21:25:56 41° WSW 21:28:54 22° S
Meteor 1-21 Rocket 4.4 21:32:05 25° SSE 21:35:19 60° E 21:40:59 10° NNE
CZ-3B R/B 4.5 21:06:38 10° WSW 21:36:14 75° NNW 21:41:50 10° ENE
SJ 16-02 2.7 21:33:47 10° N 21:37:44 32° ENE 21:40:30 17° ESE
Meteor 2-10 Rocket 4.5 21:34:42 10° NNW 21:39:21 38° W 21:42:36 18° SSW
Cosmos 1777 Rocket 4.2 21:34:17 10° NNW 21:39:34 66° ENE 21:42:43 24° SE
Cosmos 1606 Rocket 4.4 21:35:47 10° NNW 21:40:02 43° W 21:42:32 22° SSW
Cosmos 1992 Rocket 4.5 21:37:58 11° SW 21:43:00 60° WNW 21:48:13 10° NNE
Cosmos 1943 Rocket 3.0 21:37:51 10° NNW 21:43:07 42° NE 21:47:24 15° ESE
Spot 4 3.8 21:41:10 29° SSE 21:43:40 86° WSW 21:48:28 10° NNW
Cosmos 1892 Rocket 3.7 21:43:59 25° SSW 21:46:30 72° W 21:50:59 10° N
Cosmos 1346 Rocket 4.3 21:47:04 12° SW 21:50:15 32° WNW 21:53:55 10° N
Meteor 1-4 Rocket 2.9 21:48:02 10° N 21:51:27 51° ENE 21:52:29 36° SE
Cosmos 1354 Rocket 4.4 21:47:04 10° NNW 21:52:16 53° WSW 21:55:00 27° S
Tsikada Rocket 4.5 21:49:24 24° SSE 21:52:46 47° E 21:58:38 10° NNE
Cosmos 1441 Rocket 3.1 21:54:42 37° S 21:56:08 84° E 21:59:58 10° NNE
Cosmos 1980 3.9 21:51:14 14° SW 21:56:12 74° WNW 22:01:55 10° NNE
BREEZE-M DEB (TANK) 2.8 21:49:59 10° WSW 21:58:09 57° SSE 22:01:04 10° E
ATLAS 3B R/B 3.9 21:53:15 10° WSW 21:59:29 41° NNW 22:05:57 10° NE
ALOS 2 2.6 21:57:54 33° SSE 21:59:51 80° ENE 22:04:17 10° NNW
NOSS 3-1 (C) 3.9 21:59:23 28° SSE 22:01:20 37° ESE 22:06:53 10° NE
SL-4 R/B 1.7 21:57:42 10° WSW 22:01:45 84° SSE 22:05:30 10° ENE
FALCON 9 DEB 4.3 22:00:50 10° W 22:03:50 41° N 22:06:50 10° ENE
Cosmos 724 4.3 22:01:28 10° NW 22:07:41 84° SW 22:11:24 25° SSE
Cosmos 2219 Rocket 4.2 22:03:53 10° WSW 22:08:38 27° NW 22:13:24 10° NNE
Cosmos 1703 3.4 22:08:43 33° SSW 22:10:22 67° W 22:14:20 10° N
Cosmos 2333 Rocket 4.4 22:05:51 10° W 22:10:27 24° NW 22:15:03 10° N
Lacrosse 5 rocket 3.6 22:08:22 10° WNW 22:11:21 23° N 22:14:18 10° NE
NOSS 2-3 (E) 4.5 22:11:09 28° SE 22:11:45 29° ESE 22:15:47 10° ENE
NOSS 3-1 (A) 4.3 22:11:32 23° SE 22:13:04 26° ESE 22:17:59 10° ENE
Cosmos 1626 Rocket 3.5 22:12:18 35° S 22:14:09 79° E 22:18:36 10° NNE
USA 215 3.2 22:11:10 10° ENE 22:17:44 76° SE 22:24:16 10° SW
Cosmos 1602 Rocket 3.6 22:20:35 35° S 22:22:21 70° E 22:26:49 10° NNE
COBE Rocket 4.4 22:22:10 28° SSW 22:24:30 50° W 22:29:18 10° NNW
SL-16 R/B 2.2 22:23:55 29° S 22:26:55 71° ESE 22:32:35 10° NNE
FALCON 9 DEB 4.5 22:24:36 10° WNW 22:27:32 37° N 22:30:29 10° ENE
Cosmos 1455 4.2 22:25:46 10° NW 22:28:27 18° W 22:29:59 15° WSW
Cosmos 2237 Rocket 3.0 22:23:51 10° SW 22:29:15 47° NW 22:34:43 10° NNE
Cosmos 1758 Rocket 4.0 22:28:38 33° SSE 22:30:16 51° E 22:34:33 10° NNE
Cosmos-2242 3.4 22:27:17 10° N 22:31:39 57° ENE 22:33:34 31° SE
Cosmos 1328 4.0 22:31:00 34° SW 22:32:27 60° WNW 22:36:20 10° N
Cosmos 2369 Rocket 2.7 22:31:35 10° NNW 22:37:16 57° ENE 22:41:40 17° SE
Cosmos 1634 Rocket 4.0 22:33:32 10° N 22:39:54 83° E 22:43:33 27° SSE
GEOS 3 Rocket 4.4 22:38:08 29° SSW 22:40:03 38° WSW 22:45:01 10° NW
ATLAS CENTAUR R/B 3.7 22:40:45 13° SW 22:45:51 90° NNW 23:00:55 10° NE
PSLV R/B 3.9 22:46:06 10° NNE 22:50:24 55° E 22:52:04 34° SSE
USA 32 4.3 22:45:42 10° NNW 22:50:53 59° W 22:53:23 30° SSW
Aureole 3 3.5 22:47:36 10° NNW 22:51:28 75° W 22:53:19 35° S
USA 267 3.2 22:46:54 15° SE 22:52:23 68° SW 22:58:56 10° WNW
NOSS 2-3 (D) 3.6 22:51:08 38° S 22:52:30 59° SE 22:57:15 10° NE
Cosmos 1812 Rocket 4.1 22:53:36 10° NNW 22:57:47 47° W 22:59:21 32° SW
Cosmos 1763 Rocket 4.0 22:55:46 29° SSE 22:57:51 45° ESE 23:02:45 10° NE
Cosmos 2278 Rocket 4.3 22:58:17 10° WNW 23:00:26 12° W 23:02:34 10° WSW
Cosmos 2221 4.1 22:57:16 10° N 23:01:02 29° ENE 23:03:52 15° SE
BREEZE-M DEB (TANK) 3.5 22:57:52 10° W 23:01:57 85° N 23:15:59 10° E
Cosmos 2297 4.2 22:58:31 10° NW 23:03:50 43° WSW 23:06:11 29° SSW
Thor Agena Rocket 3.6 23:01:45 10° NNE 23:07:01 78° WNW 23:09:46 29° SSW
CREW DRAGON DEMO-1 DEB 4.1 23:10:06 24° E 23:10:06 24° E 23:11:17 10° ENE
NOSS 2-3 (C) 3.5 23:07:22 32° SW 23:09:17 85° SE 23:14:14 10° NE
NOSS 8 (E) 4.0 23:12:07 58° SSW 23:12:38 80° SE 23:15:37 10° NE
Resurs 1-4 Rocket 3.9 23:10:57 10° NE 23:14:55 21° E 23:18:23 12° SE
SJ 16-02 2.4 23:12:25 10° NW 23:16:17 31° WSW 23:17:27 27° SW
FALCON 9 DEB 3.4 23:13:36 10° WNW 23:17:00 66° NNE 23:20:23 10° ESE
Transit 2A Rocket 4.4 23:16:13 34° SSW 23:18:05 86° SE 23:22:36 10° NE
Exosat Rocket 3.9 23:20:17 27° S 23:23:50 66° ESE 23:29:01 10° NNE
GP-B 4.1 23:19:57 10° NNW 23:24:03 37° W 23:26:01 24° SW
ADEOS II 4.5 23:22:24 10° ENE 23:24:21 12° E 23:26:18 10° ESE
YAOGAN 11 4.5 23:21:55 23° SE 23:24:33 62° ENE 23:29:02 10° N
In-Cosmos 22 Rocket 4.1 23:23:39 29° SSW 23:26:39 83° WNW 23:32:08 10° N
Cosmos 1943 Rocket 2.9 23:21:47 10° NW 23:26:46 36° WSW 23:28:53 26° SSW
Cosmos 1825 Rocket 3.8 23:25:14 31° SSW 23:27:12 62° WNW 23:31:38 10° N
Cosmos 1932 4.4 23:24:50 10° NW 23:31:05 79° SW 23:36:16 15° SSE
Cosmos 1892 3.0 23:30:16 34° SW 23:31:41 56° WNW 23:35:31 10° N
X-37B 2.1 23:33:13 23° ESE 23:33:13 23° ESE 23:34:43 10° ESE
Helios 1A 3.2 23:32:32 25° SSE 23:34:52 68° ENE 23:39:04 10° N
Cosmos 540 Rocket 3.8 23:32:30 27° S 23:35:00 52° ESE 23:39:59 10° NNE
Cosmos 1437 Rocket 2.7 23:31:41 10° N 23:35:34 78° ENE 23:37:15 32° SSE
USA 305 4.0 23:35:05 25° SSE 23:35:40 26° SE 23:39:15 10° ENE
Cosmos 1869 4.0 23:32:52 10° NNW 23:36:46 43° W 23:38:08 31° SW
CZ-2D R/B 3.4 23:32:24 10° NE 23:36:58 30° E 23:40:22 15° SSE
Cosmos 1943 3.3 23:36:45 27° S 23:39:48 68° ESE 23:45:26 10° NNE
FALCON 9 DEB 4.2 23:36:56 10° WNW 23:39:57 41° N 23:42:57 10° E
Cosmos 990 Rocket 4.3 23:35:28 10° NNW 23:40:28 49° WSW 23:42:50 28° SSW
EO 1 Del DPAF 3.3 23:37:30 10° N 23:41:13 64° WNW 23:42:38 34° SW
SL-4 R/B 2.5 23:37:42 10° W 23:41:30 54° N 23:45:01 10° ENE
Lacrosse 4 Rocket 2.5 23:37:43 10° NNW 23:41:39 42° NE 23:45:30 10° ESE
USA 229 DEB 3.7 23:38:46 19° SW 23:43:34 82° NW 23:50:32 10° NE
USA 229 3.7 23:38:54 20° SW 23:43:40 82° NW 23:50:38 10° NE
Aureole 3 Rocket 4.1 23:40:14 10° N 23:44:00 43° ENE 23:48:22 13° SSE
Cosmos 841 Rocket 3.8 23:44:06 26° S 23:46:50 56° ESE 23:51:52 10° NNE
DELTA 2 R/B (1) 4.4 23:47:09 27° S 23:48:12 29° S 23:52:56 10° ESE
Cosmos 1603 3.7 23:46:12 26° SSW 23:49:31 82° ESE 23:55:11 10° NNE
Lacrosse 5 rocket 3.4 23:48:12 10° NW 23:51:17 26° NNE 23:54:23 10° ENE
NOSS 3-1 (C) 4.0 23:46:44 11° WSW 23:51:54 52° NW 23:58:21 10° NE
SL-16 R/B 3.0 23:46:16 10° SE 23:52:20 59° ENE 23:58:24 10° N
Cosmos 1953 Rocket 4.0 23:50:42 27° SW 23:52:46 51° WNW 23:57:06 10° N
Cosmos 1242 Rocket 2.7 23:49:46 10° N 23:53:22 68° ENE 23:55:14 26° SSE
Cosmos 1408 3.6 23:53:09 26° WSW 23:54:34 36° WNW 23:58:01 10° N
FALCON 9 DEB 3.7 23:52:26 10° WNW 23:55:29 52° NNE 23:58:30 10° E
Cosmos 1825 2.3 23:54:28 33° SSW 23:55:57 62° WNW 23:59:42 10° N
